NOAA 16 DEB, 41290

Orbit data source: Space-Track

NOAA 16 DEB, 41290 is space debris in SSO originally from a launch on Thu, 21 Sep 2000 UTC launched from the Air Force Western Test Range (AFWTR). Debris objects in space refer to the collection of defunct objects orbiting the Earth. Examples of debris include non-operational satellites, rocket bodies, and fragments generated from explosions, collisions, or faulty payload assembly.

Loading next visibility...
Identifier
41290, 2000-055GS
Orbit
SSO
Country
Flag of USUS
Related business
Manufacturer
Unknown
Mission
Spacecraft
Bus & Motor
Unknown
Mass
Unknown
Launch date (UTC)
2000-09-21 (25 years ago)
Launch vehicle
Unknown
Launch site
Air Force Western Test Range (AFWTR)
Object type
Payload
Rocket body
Debris
Shape & HBR
Unknown shape, 0.1 m
Radar Cross Section
Small (<0.1 m²)

Expand to show TLE details & history
Last TLE update: 12 hours ago

TLE from 12 hours ago
0 NOAA 16 DEB
1 41290U 00055GS  25312.58449507  .00032660  00000-0  62839-2 0  9998
2 41290  99.0024 173.5727 0017129  49.9926 310.2774 14.63397435514361
Epoch: 2025-11-08T14:01Z
TLE epoch observation values (Epoch: 2025-11-08T14:01:40.374Z)
Latitude
0.00003°
Longitude
-84.85754°
Altitude
677.381 km
Speed
7.522 km/s
True Right ascension
11h 34m 17s
True Declination
0° 00' 00"
Sunlit
Object was in daylight at epoch
Visualization orbit readout
Latitude
Unknown
Longitude
Unknown
Altitude
Unknown
Speed
Unknown
Apparent Right ascension
Unknown
Apparent Declination
Unknown
Sunlit
N/A
Visualization observer readout
Local Sidereal Time
22:21:21
Azimuth
Unknown
Elevation
Unknown
Doppler factor
Unknown
Orbital elements
Apogee altitude
691.429 km
Perigee altitude
667.252 km
Semi-major axis
7,057.478 km
Eccentricity
0.00171
Inclination
99.0024°
RAAN
173.5727°
Arg. of periapsis
49.9926°
True anomaly
310.12744°
Mean anomaly
310.2774°
Eccentric anomaly
310.20244°
Mean motion
3.66074 °/min
Orbital period
98.34 mins
BSTAR
0.0062839
Loading maneuver chart data...
Computing Atmospheric mass density...

Documentation

Showing up to 5 results
|